This is the latest recevied weather packets stored in our database for station/object KB0BS-13. If no packets are shown the sender has not sent any weather packets the latest 10 day(s).
| Time | Temp. | Humidity | Pressure | Rain* | Wind** | Luminosity | Snow |
|---|---|---|---|---|---|---|---|
| 1777885816 | 2.22° C | 99% | 1000.4 hPa | 0 mm | - | 0 W/m² | - |
| 1777885514 | 1.11° C | 99% | 1000.4 hPa | 0 mm | - | 0 W/m² | - |
| 1777885212 | 1.11° C | 99% | 1000.5 hPa | 0 mm | - | 0 W/m² | - |
| 1777884909 | 0.56° C | 99% | 1000.6 hPa | 0 mm | - | 0 W/m² | - |
| 1777884605 | 0.56° C | 99% | 1000.6 hPa | 0 mm | - | 0 W/m² | - |
| 1777884302 | 0.56° C | 99% | 1000.6 hPa | 0 mm | - | 0 W/m² | - |
| 1777883998 | 1.11° C | 99% | 1001.1 hPa | 0 mm | - | 0 W/m² | - |
| 1777883695 | 0.56° C | 99% | 1001 hPa | 0 mm | - | 0 W/m² | - |
| 1777883391 | 1.11° C | 99% | 1001 hPa | 0 mm | - | 0 W/m² | - |
| 1777883088 | 2.22° C | 99% | 1001.1 hPa | 0 mm | - | 0 W/m² | - |
| 1777882785 | 1.67° C | 99% | 1001.2 hPa | 0 mm | - | 0 W/m² | - |
| 1777882482 | 2.22° C | 99% | 1001.3 hPa | 0 mm | - | 0 W/m² | - |
| 1777882177 | 2.22° C | 99% | 1001.4 hPa | 0 mm | - | 0 W/m² | - |
| 1777881874 | 3.33° C | 99% | 1001.5 hPa | 0 mm | - | 0 W/m² | - |
| 1777881571 | 3.89° C | 99% | 1001.5 hPa | 0 mm | - | 0 W/m² | - |
| 1777881268 | 3.89° C | 99% | 1001.6 hPa | 0 mm | - | 0 W/m² | - |
| 1777880965 | 3.89° C | 99% | 1001.6 hPa | 0 mm | - | 0 W/m² | - |
| 1777880663 | 3.89° C | 99% | 1001.5 hPa | 0 mm | - | 0 W/m² | - |
| 1777880361 | 3.89° C | 99% | 1001.7 hPa | 0 mm | - | 0 W/m² | - |
| 1777880060 | 3.89° C | 99% | 1001.8 hPa | 0 mm | - | 0 W/m² | - |
| 1777879758 | 3.89° C | 99% | 1002 hPa | 0 mm | - | 0 W/m² | - |
| 1777879454 | 3.89° C | 99% | 1002 hPa | 0 mm | - | 0 W/m² | - |
| 1777879151 | 3.89° C | 99% | 1002 hPa | 0 mm | - | 0 W/m² | - |
| 1777878848 | 3.89° C | 99% | 1002.1 hPa | 0 mm | - | 0 W/m² | - |
| 1777878545 | 3.89° C | 99% | 1002.1 hPa | 0 mm | - | 0 W/m² | - |
* Rain latest hour (hover to see other rain measurements)
** Current wind speed in m/s (hover to see current wind gust speed)